RH
93 98 76 67 64 59 55 54 54 57 59 66 75 73 74 76 72 70 66 54 52 53
94 96 97 94 65 64 60 61 56 53 53 61 68 65 69 68 65 61 67 64 60 58
94 96 97 96 92 82 66 61 60 61 58 64 62 59 57 57 59 59 73 67 58 61
95 95 96 99 98 92 78 63 59 58 63 60 63 66 59 59 58 57 57 57 56 63
96 96 97 98 99 98 92 81 64 59 57 59 61 58 56 57 58 60 64 63 61 57
95 96 98 98 100 98 98 93 89 73 64 61 64 62 58 58 59 62 59 59 58 61
95 96 97 99 99 99 100 99 95 87 82 86 80 76 64 63 66 66 66 69 64 68
94 95 96 97 99 99 99 100 100 100 93 82 80 80 82 80 78 80 85 91 94 96
93 94 95 96 98 98 98 99 100 100 100 97 84 79 79 82 88 90 94 98 98 97
94 94 94 96 96 97 98 99 99 99 100 100 97 86 87 95 97 98 98 97 97 97
94 94 94 94 95 96 98 98 99 99 100 100 99 97 98 100 99 99 99 98 97 97
94 94 94 94 95 96 96 97 98 98 100 100 100 98 100 98 98 98 98 98 97 97
94 94 94 95 95 96 96 97 97 97 98 100 100 100 100 98 96 97 98 98 98 97
93 95 95 95 94 95 96 96 97 97 97 97 100 100 98 98 97 96 97 97 98 97
Wind_Speed
16 7 9 14 14 11 11 10 11 10 9 9 9 9 9 6 5 7 6 8 6 4
14 15 1 1 9 12 12 9 12 12 12 10 11 12 10 8 8 8 6 7 7 4
15 14 10 3 5 6 9 13 14 12 12 11 11 12 12 10 10 11 6 6 9 6
15 14 11 6 5 3 4 10 14 15 14 14 12 10 12 11 12 13 11 9 10 8
17 14 12 9 7 5 6 5 6 11 14 14 14 10 13 14 12 13 12 9 10 11
19 17 14 11 9 5 6 9 7 4 9 15 14 13 10 13 12 12 11 11 11 9
20 18 14 11 7 8 8 9 8 8 4 7 11 12 11 12 12 12 11 9 11 10
18 18 16 15 11 9 8 8 9 11 8 8 10 11 12 13 13 13 14 11 10 9
17 17 16 15 13 9 7 11 9 10 9 8 7 21 23 16 13 12 15 13 10 10
18 17 18 17 15 13 12 11 9 9 9 8 9 23 23 23 12 11 10 11 11 9
18 16 16 16 16 16 10 9 6 7 8 5 8 20 22 21 13 11 11 10 11 11
16 15 16 15 15 13 11 11 11 10 7 7 9 21 22 16 12 11 10 9 10 10
15 14 15 14 14 12 10 10 9 10 10 13 11 19 20 14 8 9 8 8 9 17
14 14 14 12 10 11 10 10 10 10 10 11 8 11 17 16 7 6 6 6 7 7
Wind_Direction
331 295 194 184 167 165 171 169 162 153 153 151 143 138 131 121 118 123 132 140 130 133
342 332 332 283 186 173 159 157 160 157 155 149 147 147 143 144 134 130 128 122 117 104
344 335 334 88 128 178 170 154 155 149 147 141 142 149 144 141 139 135 126 122 118 105
352 349 355 356 87 129 129 172 157 151 144 143 138 137 135 137 139 137 134 130 126 114
354 356 4 357 21 106 134 105 162 156 149 146 136 143 143 140 138 133 130 130 127 129
357 358 357 358 17 46 117 129 112 136 154 145 140 132 142 130 130 123 125 126 122 126
357 352 354 1 7 44 57 92 115 113 129 126 121 126 123 125 124 120 120 121 125 126
352 359 351 1 13 32 56 81 92 98 102 119 135 122 137 124 128 130 118 112 110 113
360 3 355 4 6 22 45 69 79 103 105 103 119 131 132 131 123 131 123 127 120 126
357 3 360 3 3 13 25 48 66 70 101 119 131 132 129 125 118 108 117 120 119 115
354 360 2 4 4 10 15 28 57 72 66 97 134 135 132 115 108 115 113 124 119 125
348 353 1 5 2 2 12 24 40 41 56 78 112 118 111 105 101 108 117 113 118 123
346 350 360 359 2 0 6 20 36 38 38 74 88 101 100 96 103 111 115 120 131 138
348 350 353 355 3 4 9 21 30 39 32 35 63 109 111 110 104 109 120 131 136 146